Location: Unspecified
(0.0000°N, 0.0000°E)
Time: 23:43:17
(UTC+00:00)

Tiangong 2 - Pass Details

Date: 24 April 2017
Orbit: 389 x 395 km, 42.8° (Epoch: 16 August)

Event Time Altitude Azimuth Distance (km) Brightness Sun altitude
Rises 18:21:57 0° 319° (NW) 2,270 6.0 -5.8°
Reaches altitude 10° 18:24:02 10° 322° (NW) 1,415 4.8 -6.3°
Maximum altitude 18:27:12 68° 45° (NE) 421 1.1 -7.1°
Drops below altitude 10° 18:30:23 10° 129° (SE) 1,416 3.4 -7.9°
Enters shadow 18:30:42 - 130° (SE) 1,547 3.6 -7.9°
